[Iaude] MPEC B56: 2024 BH1 [a=1.75,e=0.65,i=10.2,H=26.1]

mpec at marsden.cfa.harvard.edu mpec at marsden.cfa.harvard.edu
Fri Jan 19 21:55:46 EST 2024


M.P.E.C. 2024-B56                              Issued 2024 January 20, 02:54 UT

     The Minor Planet Electronic Circulars contain information on unusual
         minor planets, routine data on comets and natural satellites,
         and occasional editorial announcements.  They are published
    on behalf of Division F of the International Astronomical Union by the
          Minor Planet Center, Smithsonian Astrophysical Observatory,
                          Cambridge, MA 02138, U.S.A.
			  
             Prepared using the Tamkin Foundation Computer Network

                              MPC at CFA.HARVARD.EDU
            URL https://www.minorplanetcenter.net/    ISSN 1523-6714

                                    2024 BH1                                    


Observations:
     K24B01H*1C2024 01 19.29840609 08 04.027+25 24 51.98         19.55GVEB056G96
     K24B01H 1C2024 01 19.30349409 07 54.822+25 23 24.79         19.59GVEB056G96
     K24B01H 1C2024 01 19.30858509 07 45.595+25 21 56.92               VEB056G96
     K24B01H 1C2024 01 19.31368009 07 36.325+25 20 28.61               VEB056G96
     K24B01H KC2024 01 19.38250809 05 33.980+25 00 52.60         19.82GVEB056I52
     K24B01H KC2024 01 19.38302009 05 33.080+25 00 44.30         20.14GVEB056I52
     K24B01H KC2024 01 19.38353009 05 32.160+25 00 35.00         19.21GVEB056I52
     K24B01H KC2024 01 19.38405109 05 31.280+25 00 27.00         19.21GVEB056I52
     K24B01H 1C2024 01 19.56088609 00 42.541+24 11 44.30         19.42GVEB056G96
     K24B01H 1C2024 01 19.56136809 00 41.796+24 11 36.82         19.69GVEB056G96
     K24B01H 1C2024 01 19.56161009 00 41.443+24 11 32.53         19.89GVEB056G96
     K24B01H  C2024 01 19.56816409 00 36.712+24 11 15.24         19.66GVEB056F52
     K24B01H  C2024 01 19.58089809 00 16.853+24 07 53.99               VEB056F52
     K24B01H  C2024 01 19.59320408 59 57.836+24 04 39.85         19.69GVEB056F52
     K24B01H 1C2024 01 19.86482 08 54 02.45 +22 57 03.9          20.3 VXEB056033
     K24B01H 1C2024 01 19.86521 08 54 01.98 +22 56 58.4          20.3 VXEB056033
     K24B01H 1C2024 01 19.86555 08 54 01.50 +22 56 54.1          20.4 VXEB056033
     K24B01H KB2024 01 19.89698908 53 22.68 +22 50 02.9          20.3 GXEB056I93
     K24B01H KB2024 01 19.90074308 53 17.82 +22 49 13.2          19.7 GXEB056I93
     K24B01H KB2024 01 19.90448908 53 12.99 +22 48 23.3          20.4 GXEB056I93
     K24B01H KC2024 01 19.97087608 51 47.753+22 33 30.85         20.0 GVEB056J95
     K24B01H KC2024 01 19.97821908 51 38.520+22 31 55.56         19.8 GVEB056J95
     K24B01H KC2024 01 19.98644508 51 28.226+22 30 09.18         19.9 GVEB056J95

Observer details:
033 Karl Schwarzschild Observatory, Tautenburg.  Observers S. Melnikov, C.
    Hogner, F. Ludwig, M. Hartmann, B. Stecklum.  Measurer B. Stecklum.
    1.34-m f/3 Schmidt + CCD.
F52 Pan-STARRS 2, Haleakala.  Observers J. Herman, T. Lowe, P. Minguez, A.
    Schultz, I. Smith.  Measurers K. Chambers, T. de Boer, J. Fairlamb, H.
    Gao, M. Huber, C.-C. Lin, E. Magnier, Y. Ramanjooloo, R. Wainscoat, R.
    Weryk.  1.8-m Ritchey-Chretien + CCD.
G96 Mt. Lemmon Survey.  Observer A. R. Gibbs.  Measurers T. Beuden, V. F.
    Carvajal, D. Fay, J. B. Fazekas, D. C. Fuls, A. R. Gibbs, A. D. Grauer, H.
    Groeller, J. K. Hogan, R. A. Kowalski, S. M. Larson, G. J. Leonard, D.
    Rankin, R. L. Seaman, F. C. Shelly, K. W. Wierzchos.  1.5-m reflector +
    10K CCD.
I52 Steward Observatory, Mt. Lemmon Station.  Observer R. A. Kowalski.
    Measurers E. C. Beshore, D. Fay, J. B. Fazekas, D. C. Fuls, A. R. Gibbs,
    A. D. Grauer, H. Groeller, J. K. Hogan, R. A. Kowalski, S. M. Larson, G.
    J. Leonard, D. Rankin, R. L. Seaman, F. C. Shelly, K. W. Wierzchos.  1.0-m
    prime focus + CCD.
I93 St Pardon de Conques.  Observer F. Losse.  0.40-m f/3.7 reflector + CMO.
J95 Great Shefford.  Observer P. Birtwhistle.  0.41-m f/6.3 Schmidt-Cassegrain
    + CCD.

Orbital elements:
2024 BH1                                                 Earth MOID = 0.0109 AU
Epoch 2023 Sept. 13.0 TT = JDT 2460200.5                Veres                   
M 326.92886              (2000.0)            P               Q                  
n   0.42599774     Peri.   87.07317     +0.87144216     -0.46614764             
a   1.7493009      Node   300.66622     +0.34913656     +0.80805622             
e   0.6506693      Incl.   10.22077     +0.34451738     +0.36021038             
P   2.31           H   26.11          G   0.15           U   8                  
Residuals in seconds of arc
240119 G96  0.7-  0.2-    240119 G96  0.1-  0.3-    240119 033  0.2+  0.0
240119 G96  0.2+  0.5+    240119 G96  0.2-  0.0     240119 I93  0.2-  0.3+
240119 G96  0.5+  0.5+    240119 G96  0.1-  0.4-    240119 I93  0.2-  0.4+
240119 G96  0.1+  0.0     240119 F52  0.2-  0.1-    240119 I93  0.1-  0.1+
240119 I52  0.2+  0.2-    240119 F52  0.1+  0.1+    240119 J95  0.1+  0.3-
240119 I52  0.1+  0.2+    240119 F52  0.1+  0.0     240119 J95  0.1-  0.1-
240119 I52  0.3-  0.4-    240119 033  0.1+  0.0     240119 J95  0.1-  0.3+
240119 I52  0.0   0.4+    240119 033  0.7+  0.3-

Ephemeris:
2024 BH1                 a,e,i = 1.75, 0.65, 10                  q = 0.6111
Date    TT    R. A. (2000) Decl.     Delta      r    Elong.  Phase     V
2023 12 21    19 21 04.4 -06 29 06   0.3186  0.7148    27.0   141.3    29.9
...
2024 01 05    19 11 01.6 -01 05 25   0.1304  0.8636    21.8   155.0    30.9
...
2024 01 13    18 15 58.2 +12 01 34   0.04187 0.9513    38.8   139.6    25.9
...
2024 01 19    09 17 28.7 +26 58 33   0.03606 1.0181   161.3    18.1    19.9
2024 01 20    08 51 10.0 +22 28 58   0.04610 1.0292   169.0    10.5    20.2
2024 01 21    08 35 20.0 +19 29 32   0.05666 1.0404   173.8     5.9    20.4
...
2024 01 27    08 01 42.9 +12 31 15   0.1240  1.1069   170.0     8.9    22.4
...
2024 02 04    07 51 28.2 +10 12 33   0.2190  1.1944   160.6    15.9    24.1
...
2024 02 19    07 50 39.5 +09 16 28   0.4133  1.3526   146.6    23.7    26.0

M. P. C. Staff               (C) Copyright 2024 MPC           M.P.E.C. 2024-B56





More information about the Iaude mailing list